Home   Weather   Kãnpur   Past weeks

Flag for India Past Weather in Kãnpur, Uttar Pradesh, India — Yesterday and Last 2 Weeks

Now
70 °F

Haze.


Feels Like: 70 °F
Forecast: 59 / 86 °F
Wind: 2 mph from North

Location: Lucknow / Amausi

Current Time: Feb 25, 2017 at 7:24:39 pm

Latest Report: Feb 25, 2017 at 7:00 pm


Visibility: 1 mi

Pressure: 29.86 "Hg

Humidity: 43%

Dew Point: 46 °F

Location of KãnpurLocation

Past Weather in Kãnpur — Graph

°F

Kãnpur Temperature Yesterday

Maximum temperature yesterday: 79 °F (at 1:00 pm)
Minimum temperature yesterday: 48 °F (at 7:00 am)
Average temperature yesterday: 66 °F

High & Low Weather Summary for the Past Weeks

 TemperatureHumidityPressure
High91 °F (Feb 20, 2:00 pm)100% (Feb 15, 6:30 am)30.18 "Hg (Feb 15, 6:30 am)
Low48 °F (Feb 11, 6:00 am)21% (Feb 22, 2:30 pm)29.59 "Hg (Feb 21, 3:00 am)
Average68 °F61%29.95 "Hg
* Reported Feb 10 5:30 pm — Feb 25 6:00 pm, Kãnpur, Weather by CustomWeather, © 2017

Note: Actual official high and low records may vary slightly from our data, if they occured in-between our weather recording intervals... More about our weather records

Advertising

Kãnpur Weather History for the Previous 24 Hours

Scroll right to see more
 ConditionsComfort  
Time TempWeatherWind HumidityBarometerVisibility
6:00 pm
Sat, Feb 25
77 °FHaze.3 mph34%29.86 "Hg1 mi
5:30 pm79 °FHaze.3 mph30%29.86 "Hg2 mi
5:00 pm81 °FHaze.5 mph26%29.86 "Hg2 mi
4:30 pm81 °FHaze.5 mph24%29.86 "Hg2 mi
4:00 pm82 °FHaze.7 mph26%29.86 "Hg2 mi
3:30 pm82 °FHaze.9 mph25%29.86 "Hg2 mi
3:00 pm82 °FHaze.16 mph21%29.86 "Hg2 mi
2:30 pm82 °FHaze.9 mph23%29.89 "Hg2 mi
2:00 pm81 °FHaze.16 mph23%29.89 "Hg2 mi
1:30 pm81 °FHaze.13 mph26%29.92 "Hg2 mi
1:00 pm79 °FHaze.10 mph30%29.92 "Hg2 mi
12:30 pm77 °FHaze.8 mph32%29.95 "Hg2 mi
12:00 pm77 °FHaze.10 mph32%29.98 "Hg2 mi
11:30 am73 °FHaze.9 mph36%29.98 "Hg2 mi
11:00 am73 °FHaze.10 mph36%29.98 "Hg2 mi
10:30 am70 °FHaze.9 mph40%30.01 "Hg1 mi
10:00 am68 °FHaze.7 mph43%29.98 "Hg1 mi
9:30 am66 °FHaze.8 mph46%29.98 "Hg1 mi
9:00 am63 °FHaze.8 mph52%29.98 "Hg1 mi
8:30 am59 °FHaze.5 mph55%29.95 "Hg1 mi
8:00 am55 °FHaze.3 mph63%29.95 "Hg1 mi
7:30 am54 °FHaze.2 mph67%29.95 "Hg1 mi
7:00 am52 °FHaze.2 mph67%29.95 "Hg1 mi
6:30 am50 °FHaze.2 mph71%29.92 "Hg1 mi
6:00 am50 °FHaze.2 mph71%29.92 "Hg1 mi
5:30 am50 °FHaze.2 mph71%29.89 "Hg1 mi
5:00 am50 °FHaze.2 mph71%29.89 "Hg1 mi
4:00 am52 °FHaze.2 mph67%29.92 "Hg1 mi
3:00 am54 °FHaze.2 mph67%29.92 "Hg1 mi
2:00 am54 °FHaze.2 mph67%29.92 "Hg1 mi
12:00 am57 °FHaze.2 mph59%29.95 "Hg1 mi
11:00 pm
Fri, Feb 24
59 °FHaze.2 mph55%29.98 "Hg1 mi
10:00 pm61 °FHaze.3 mph52%29.98 "Hg1 mi
9:00 pm63 °FHaze.2 mph49%29.98 "Hg1 mi
8:30 pm63 °FHaze.2 mph49%29.95 "Hg1 mi
8:00 pm64 °FHaze.2 mph46%29.95 "Hg1 mi
7:30 pm64 °FHaze.3 mph46%29.95 "Hg1 mi
7:00 pm66 °FHaze.2 mph46%29.92 "Hg1 mi
Weather by CustomWeather, © 2017

See weather overviewHow to use our weather pages